Regional Weather Roundup
Issued by NWS

Home | Current Version | Previous Version | Graphics & Text | Print | Product List | Glossary On
Versions: 1 2 3 4 5 6 7 8 9 10 11 12 13 14 15 16 17 18 19 20 21 22 23 24 25 26 27 28 29 30 31 32 33 34 35 36 37 38 39 40 41 42 43 44 45 46 47 48 49 50
000
ASUS43 KLMK 061810
RWRKY
KENTUCKY REGIONAL WEATHER ROUNDUP
NATIONAL WEATHER SERVICE LOUISVILLE KY
100 PM EST FRI MAR 06 2015

NOTE "FAIR" INDICATES FEW OR NO CLOUDS BELOW 12,000 FEET
WITH NO SIGNIFICANT WEATHER AND/OR OBSTRUCTIONS TO VISIBILITY.

KYZ001>023-026-027-061>063-070>075-061900-
WESTERN AND SOUTH CENTRAL KENTUCKY

CITY           SKY/WX    TMP DP  RH WIND       PRES   REMARKS
PADUCAH        FAIR      24   8  50 S8        30.57F WCI  15
HENDERSON      FAIR      21   7  53 SW6       30.57F WCI  14
OWENSBORO      FAIR      22  13  68 SW7       30.58F WCI  14
HOPKINSVILLE   FAIR      23  12  63 N6        30.56F WCI  15
BOWLING GREEN  FLURRIES  25  11  55 SW5       30.58F WCI  19
GLASGOW        FAIR      28  13  53 SW3       30.56F
$$

KYZ024-025-028>034-038-045-046-053-061900-
NORTH CENTRAL KENTUCKY

CITY           SKY/WX    TMP DP  RH WIND       PRES   REMARKS
LOUISVILLE/SDF FAIR      27  11  51 CALM      30.55F
LOUISVILLE/LOU FAIR      25  10  53 VRB6      30.55F WCI  18
FORT KNOX      SUNNY     25  11  55 SE6       30.52F WCI  18
$$

KYZ035>037-039>044-047>052-055>060-089>105-061900-
NORTHEAST KENTUCKY

CITY           SKY/WX    TMP DP  RH WIND       PRES   REMARKS
LEXINGTON      FAIR      20   7  57 S5        30.53F WCI  13
COVINGTON      FAIR      23  10  57 S10G16    30.51F WCI  12
FRANKFORT      FAIR      22  10  60 S6        30.53F WCI  14
$$

KYZ054-064>069-076>088-106>120-061900-
SOUTHEAST KENTUCKY

CITY           SKY/WX    TMP DP  RH WIND       PRES   REMARKS
JACKSON        FAIR      26   9  48 NW5       30.47F WCI  20
LONDON         FAIR      24   8  50 SW5       30.49F WCI  18
SOMERSET       FAIR      25  12  58 NW6       30.54F WCI  18
MIDDLESBORO    FAIR      29  14  52 CALM      30.47F
MONTICELLO     FAIR      28  12  51 CALM      30.56S
$$



USA.gov is the U.S. government's official web portal to all federal, state and local government web resources and services.